Terug naar catalogus

KUIPER-00527

ActiefCommunicatieLEO
NORAD 69269·PAYLOAD·🇺🇸 United States

Gelanceerd May 29, 2026 vanaf Vandenberg Space Force Base

Loading…

Volgende Passages (komende 24 uur)

TLE

VersSource: CelesTrak SupGP

Epoch: Sep 14, 2026, 21:15 UTC

1 69269C 26118C   26257.88547454  .00002515  00000+0  32915-3 0  2579
2 69269  51.8992   1.6490 0000430  99.9805 153.8232 14.79933668    16

Volg KUIPER-00527 in realtime met AllMySat

Download on the App Store